Previsão horária em Aabenraa

Hoje, 11 Abril, Domingo

Tempo Temperatura Precipitação Vento Pressão Humidade
00:00 +2°C° 0 mm 3 m/s 756 mmHg 66%
01:00 +1°C° 0 mm 4 m/s 756 mmHg 68%
02:00 +1°C° 0.4 mm 4 m/s 755 mmHg 75%
03:00 0°C° 0.4 mm 5 m/s 755 mmHg 82%
04:00 -1°C° 0.4 mm 6 m/s 754 mmHg 89%
05:00 -2°C° 1.6 mm 6 m/s 754 mmHg 92%
06:00 -2°C° 1.6 mm 7 m/s 753 mmHg 95%
07:00 -4°C° 1.6 mm 8 m/s 753 mmHg 97%
08:00 -2°C° 1.1 mm 8 m/s 752 mmHg 98%
09:00 -2°C° 1.1 mm 8 m/s 752 mmHg 98%
10:00 -2°C° 1.1 mm 8 m/s 752 mmHg 98%
11:00 -2°C° 0.4 mm 7 m/s 752 mmHg 98%
12:00 -2°C° 0.4 mm 7 m/s 752 mmHg 98%
13:00 -2°C° 0.4 mm 6 m/s 752 mmHg 98%
14:00 -2°C° 0.1 mm 6 m/s 753 mmHg 98%
15:00 -1°C° 0.1 mm 6 m/s 753 mmHg 98%
16:00 0°C° 0.1 mm 5 m/s 753 mmHg 98%
17:00 0°C° 0.1 mm 5 m/s 754 mmHg 97%
18:00 0°C° 0.1 mm 5 m/s 754 mmHg 96%
19:00 0°C° 0.1 mm 5 m/s 755 mmHg 96%
20:00 0°C° 0 mm 5 m/s 755 mmHg 93%
21:00 -1°C° 0 mm 5 m/s 756 mmHg 91%
22:00 -2°C° 0 mm 6 m/s 756 mmHg 89%
23:00 -2°C° 0 mm 6 m/s 757 mmHg 87%

Amanhã, 12 Abril, Segunda-feira

Tempo Temperatura Precipitação Vento Pressão Humidade
00:00 -1°C° 0 mm 6 m/s 757 mmHg 85%
01:00 -1°C° 0 mm 6 m/s 757 mmHg 83%
02:00 -1°C° 0 mm 5 m/s 758 mmHg 85%
03:00 -1°C° 0 mm 5 m/s 758 mmHg 87%
04:00 -2°C° 0 mm 4 m/s 758 mmHg 89%
05:00 -2°C° 0 mm 4 m/s 759 mmHg 87%
06:00 -1°C° 0 mm 4 m/s 759 mmHg 85%
07:00 0°C° 0 mm 3 m/s 759 mmHg 83%
08:00 0°C° 0 mm 4 m/s 760 mmHg 77%
09:00 +2°C° 0 mm 5 m/s 760 mmHg 71%
10:00 +3°C° 0 mm 6 m/s 761 mmHg 65%
11:00 +3°C° 0 mm 6 m/s 761 mmHg 62%
12:00 +4°C° 0 mm 6 m/s 761 mmHg 60%
13:00 +4°C° 0 mm 6 m/s 761 mmHg 57%
14:00 +4°C° 0.2 mm 6 m/s 761 mmHg 58%
15:00 +4°C° 0.2 mm 6 m/s 761 mmHg 58%
16:00 +4°C° 0.2 mm 6 m/s 761 mmHg 58%
17:00 +3°C° 0 mm 5 m/s 761 mmHg 63%
18:00 +2°C° 0 mm 5 m/s 762 mmHg 68%
19:00 +1°C° 0 mm 4 m/s 762 mmHg 73%
20:00 0°C° 0 mm 5 m/s 762 mmHg 77%
21:00 0°C° 0 mm 5 m/s 762 mmHg 80%
22:00 0°C° 0 mm 5 m/s 762 mmHg 83%
23:00 -1°C° 0 mm 5 m/s 762 mmHg 85%

Depois de amanhã, 13 Abril, Terça-feira

Tempo Temperatura Precipitação Vento Pressão Humidade
00:00 -1°C° 0 mm 4 m/s 762 mmHg 86%
01:00 -1°C° 0 mm 4 m/s 762 mmHg 87%
02:00 -1°C° 0 mm 4 m/s 762 mmHg 88%
03:00 -1°C° 0 mm 4 m/s 762 mmHg 89%
04:00 0°C° 0 mm 5 m/s 762 mmHg 89%
05:00 0°C° 0 mm 5 m/s 763 mmHg 87%
06:00 +1°C° 0 mm 5 m/s 763 mmHg 84%
07:00 +1°C° 0 mm 5 m/s 764 mmHg 82%
08:00 +2°C° 0 mm 6 m/s 764 mmHg 74%
09:00 +3°C° 0 mm 6 m/s 764 mmHg 67%
10:00 +4°C° 0 mm 7 m/s 765 mmHg 59%
11:00 +5°C° 0 mm 7 m/s 765 mmHg 56%
12:00 +5°C° 0 mm 7 m/s 765 mmHg 53%
13:00 +6°C° 0 mm 7 m/s 765 mmHg 50%
14:00 +5°C° 0 mm 7 m/s 765 mmHg 51%
15:00 +5°C° 0 mm 7 m/s 765 mmHg 52%
16:00 +5°C° 0 mm 8 m/s 765 mmHg 53%
17:00 +4°C° 0 mm 7 m/s 765 mmHg 57%
18:00 +3°C° 0 mm 6 m/s 766 mmHg 62%
19:00 +2°C° 0 mm 5 m/s 766 mmHg 66%
20:00 +1°C° 0 mm 5 m/s 766 mmHg 71%
21:00 0°C° 0 mm 4 m/s 767 mmHg 77%
22:00 0°C° 0 mm 4 m/s 767 mmHg 82%
23:00 -1°C° 0 mm 4 m/s 767 mmHg 83%

14 Abril, Quarta-feira

Tempo Temperatura Precipitação Vento Pressão Humidade
00:00 0°C° 0 mm 3 m/s 767 mmHg 83%
01:00 0°C° 0 mm 3 m/s 767 mmHg 84%
02:00 0°C° 0 mm 3 m/s 767 mmHg 85%
03:00 -1°C° 0 mm 3 m/s 767 mmHg 86%
04:00 -1°C° 0 mm 3 m/s 767 mmHg 87%
05:00 0°C° 0 mm 3 m/s 768 mmHg 84%
06:00 +1°C° 0 mm 3 m/s 768 mmHg 81%
07:00 +2°C° 0 mm 2 m/s 768 mmHg 78%
08:00 +4°C° 0 mm 2 m/s 768 mmHg 70%
09:00 +5°C° 0 mm 2 m/s 768 mmHg 63%
10:00 +6°C° 0 mm 2 m/s 769 mmHg 56%
11:00 +7°C° 0 mm 2 m/s 769 mmHg 53%
12:00 +7°C° 0 mm 2 m/s 769 mmHg 51%
13:00 +8°C° 0 mm 2 m/s 769 mmHg 49%
14:00 +8°C° 0 mm 2 m/s 769 mmHg 49%
15:00 +8°C° 0 mm 3 m/s 769 mmHg 49%
16:00 +8°C° 0 mm 3 m/s 768 mmHg 50%
17:00 +7°C° 0 mm 3 m/s 769 mmHg 53%
18:00 +4°C° 0 mm 3 m/s 769 mmHg 56%
19:00 +3°C° 0 mm 3 m/s 769 mmHg 59%
20:00 +2°C° 0 mm 3 m/s 769 mmHg 60%
21:00 +2°C° 0 mm 3 m/s 770 mmHg 62%
22:00 +1°C° 0 mm 3 m/s 770 mmHg 63%
23:00 0°C° 0 mm 3 m/s 770 mmHg 65%

15 Abril, Quinta-feira

Tempo Temperatura Precipitação Vento Pressão Humidade
00:00 0°C° 0 mm 3 m/s 770 mmHg 67%
01:00 0°C° 0 mm 3 m/s 770 mmHg 70%
02:00 -1°C° 0 mm 4 m/s 770 mmHg 73%
03:00 -1°C° 0 mm 4 m/s 770 mmHg 76%
04:00 -1°C° 0 mm 4 m/s 770 mmHg 80%
05:00 0°C° 0 mm 4 m/s 771 mmHg 78%
06:00 0°C° 0 mm 4 m/s 771 mmHg 77%
07:00 +1°C° 0 mm 4 m/s 771 mmHg 76%
08:00 +2°C° 0 mm 5 m/s 771 mmHg 69%
09:00 +5°C° 0 mm 5 m/s 772 mmHg 62%
10:00 +5°C° 0 mm 6 m/s 772 mmHg 55%
11:00 +5°C° 0 mm 6 m/s 772 mmHg 53%
12:00 +7°C° 0 mm 6 m/s 772 mmHg 50%
13:00 +8°C° 0 mm 6 m/s 772 mmHg 48%
14:00 +7°C° 0 mm 6 m/s 772 mmHg 49%
15:00 +7°C° 0 mm 6 m/s 772 mmHg 49%
16:00 +7°C° 0 mm 6 m/s 771 mmHg 49%
17:00 +6°C° 0 mm 5 m/s 772 mmHg 54%
18:00 +5°C° 0 mm 4 m/s 772 mmHg 59%
19:00 +4°C° 0 mm 3 m/s 772 mmHg 64%
20:00 +3°C° 0 mm 3 m/s 772 mmHg 65%
21:00 +3°C° 0 mm 3 m/s 772 mmHg 67%
22:00 +3°C° 0 mm 4 m/s 772 mmHg 69%
23:00 +1°C° 0 mm 4 m/s 772 mmHg 72%

16 Abril, Sexta-feira

Tempo Temperatura Precipitação Vento Pressão Humidade
00:00 +1°C° 0 mm 4 m/s 772 mmHg 76%
01:00 +1°C° 0 mm 4 m/s 772 mmHg 79%
02:00 +2°C° 0 mm 3 m/s 772 mmHg 82%
03:00 +2°C° 0 mm 3 m/s 772 mmHg 85%
04:00 +1°C° 0 mm 3 m/s 772 mmHg 88%
05:00 +2°C° 0 mm 3 m/s 773 mmHg 86%
06:00 +3°C° 0 mm 3 m/s 773 mmHg 84%
07:00 +4°C° 0 mm 3 m/s 773 mmHg 83%
08:00 +5°C° 0 mm 4 m/s 773 mmHg 75%
09:00 +7°C° 0 mm 5 m/s 773 mmHg 68%
10:00 +8°C° 0 mm 5 m/s 773 mmHg 60%
11:00 +9°C° 0 mm 6 m/s 773 mmHg 57%
12:00 +9°C° 0 mm 6 m/s 773 mmHg 53%
13:00 +10°C° 0 mm 7 m/s 773 mmHg 50%
14:00 +9°C° 0 mm 6 m/s 772 mmHg 49%
15:00 +9°C° 0 mm 6 m/s 772 mmHg 48%
16:00 +9°C° 0 mm 5 m/s 772 mmHg 47%
17:00 +8°C° 0 mm 5 m/s 772 mmHg 55%
18:00 +7°C° 0 mm 4 m/s 772 mmHg 62%
19:00 +5°C° 0 mm 3 m/s 772 mmHg 70%
20:00 +5°C° 0 mm 3 m/s 772 mmHg 73%
21:00 +4°C° 0 mm 3 m/s 773 mmHg 76%
22:00 +3°C° 0 mm 3 m/s 773 mmHg 80%
23:00 +3°C° 0 mm 3 m/s 773 mmHg 81%
Mostrar mais